When you browse on this site, cookies collect data to enhance your experience and personalize the content and advertising you see.
Visit our Privacy Policy to learn more. By continuing to use the site, you agree to this use of cookies and data.
  • în România
  • Lista ţărilor
  • Pe 7 zile
  • Temperatura apei
  • Hartă satelitară
  • Meteo pe hartă
  • Widget-uri
  • user-avatar
    Intrare

    Meteo pe oră la Blenheim

    Astăzi, 21 Iulie, Duminică

    Timp Temperatura Precipitaţii Vânt Presiune Umiditate
    00:00 +9°C° 0 mm 2 m/s 747 mmHg 96%
    01:00 +9°C° 2.4 mm 2 m/s 747 mmHg 95%
    02:00 +9°C° 2.4 mm 2 m/s 747 mmHg 95%
    03:00 +9°C° 2.4 mm 3 m/s 747 mmHg 94%
    04:00 +9°C° 1 mm 2 m/s 748 mmHg 93%
    05:00 +9°C° 1 mm 2 m/s 748 mmHg 93%
    06:00 +10°C° 1 mm 1 m/s 748 mmHg 92%
    07:00 +10°C° 0.5 mm 1 m/s 749 mmHg 93%
    08:00 +10°C° 0.5 mm 1 m/s 749 mmHg 94%
    09:00 +10°C° 0.5 mm 1 m/s 750 mmHg 94%
    10:00 +10°C° 0.7 mm 1 m/s 750 mmHg 94%
    11:00 +10°C° 0.7 mm 1 m/s 751 mmHg 95%
    12:00 +11°C° 0.7 mm 1 m/s 751 mmHg 95%
    13:00 +11°C° 0.5 mm 1 m/s 751 mmHg 95%
    14:00 +11°C° 0.5 mm 1 m/s 752 mmHg 94%
    15:00 +11°C° 0.5 mm 1 m/s 752 mmHg 94%
    16:00 +10°C° 0.4 mm 0 m/s 753 mmHg 95%
    17:00 +10°C° 0.4 mm 0 m/s 753 mmHg 95%
    18:00 +10°C° 0.4 mm 0 m/s 754 mmHg 96%
    19:00 +10°C° 0.5 mm 0 m/s 754 mmHg 96%
    20:00 +11°C° 0.5 mm 1 m/s 755 mmHg 97%
    21:00 +11°C° 0.5 mm 1 m/s 756 mmHg 97%
    22:00 +10°C° 0.2 mm 1 m/s 756 mmHg 97%
    23:00 +10°C° 0.2 mm 1 m/s 757 mmHg 96%

    Mâine, 22 Iulie, Luni

    Timp Temperatura Precipitaţii Vânt Presiune Umiditate
    00:00 +10°C° 0.2 mm 1 m/s 757 mmHg 96%
    01:00 +10°C° 0.1 mm 1 m/s 758 mmHg 95%
    02:00 +10°C° 0.1 mm 1 m/s 758 mmHg 94%
    03:00 +9°C° 0.1 mm 1 m/s 758 mmHg 94%
    04:00 +9°C° 0 mm 1 m/s 758 mmHg 94%
    05:00 +9°C° 0 mm 1 m/s 759 mmHg 94%
    06:00 +8°C° 0 mm 1 m/s 759 mmHg 93%
    07:00 +9°C° 0 mm 1 m/s 759 mmHg 93%
    08:00 +9°C° 0 mm 1 m/s 759 mmHg 92%
    09:00 +10°C° 0 mm 1 m/s 760 mmHg 92%
    10:00 +11°C° 0 mm 1 m/s 760 mmHg 87%
    11:00 +11°C° 0 mm 0 m/s 760 mmHg 82%
    12:00 +13°C° 0 mm 0 m/s 760 mmHg 78%
    13:00 +14°C° 0 mm 1 m/s 760 mmHg 77%
    14:00 +14°C° 0 mm 1 m/s 759 mmHg 77%
    15:00 +14°C° 0 mm 2 m/s 759 mmHg 76%
    16:00 +13°C° 0 mm 1 m/s 759 mmHg 82%
    17:00 +11°C° 0 mm 1 m/s 760 mmHg 88%
    18:00 +10°C° 0 mm 1 m/s 760 mmHg 94%
    19:00 +10°C° 0 mm 1 m/s 760 mmHg 94%
    20:00 +9°C° 0 mm 1 m/s 760 mmHg 95%
    21:00 +9°C° 0 mm 1 m/s 761 mmHg 95%
    22:00 +9°C° 0 mm 1 m/s 761 mmHg 95%
    23:00 +9°C° 0 mm 1 m/s 761 mmHg 94%

    Poimâine, 23 Iulie, Marţi

    Timp Temperatura Precipitaţii Vânt Presiune Umiditate
    00:00 +9°C° 0 mm 1 m/s 761 mmHg 93%
    01:00 +9°C° 0 mm 1 m/s 761 mmHg 93%
    02:00 +8°C° 0 mm 1 m/s 761 mmHg 92%
    03:00 +8°C° 0 mm 1 m/s 761 mmHg 92%
    04:00 +8°C° 0 mm 1 m/s 761 mmHg 91%
    05:00 +8°C° 0 mm 1 m/s 761 mmHg 91%
    06:00 +8°C° 0 mm 1 m/s 761 mmHg 90%
    07:00 +8°C° 0 mm 1 m/s 761 mmHg 89%
    08:00 +9°C° 0 mm 1 m/s 762 mmHg 88%
    09:00 +9°C° 0 mm 1 m/s 762 mmHg 87%
    10:00 +11°C° 0 mm 1 m/s 762 mmHg 83%
    11:00 +12°C° 0 mm 1 m/s 762 mmHg 79%
    12:00 +13°C° 0 mm 1 m/s 762 mmHg 75%
    13:00 +13°C° 0.1 mm 1 m/s 762 mmHg 76%
    14:00 +13°C° 0.1 mm 1 m/s 761 mmHg 77%
    15:00 +13°C° 0.1 mm 2 m/s 761 mmHg 78%
    16:00 +12°C° 0.1 mm 2 m/s 761 mmHg 83%
    17:00 +11°C° 0.1 mm 1 m/s 761 mmHg 88%
    18:00 +9°C° 0.1 mm 1 m/s 761 mmHg 94%
    19:00 +9°C° 0 mm 1 m/s 762 mmHg 93%
    20:00 +9°C° 0 mm 1 m/s 762 mmHg 92%
    21:00 +9°C° 0 mm 1 m/s 762 mmHg 92%
    22:00 +9°C° 0 mm 1 m/s 762 mmHg 91%
    23:00 +8°C° 0 mm 1 m/s 762 mmHg 90%

    24 Iulie, Miercuri

    Timp Temperatura Precipitaţii Vânt Presiune Umiditate
    00:00 +8°C° 0 mm 1 m/s 762 mmHg 89%
    01:00 +8°C° 0 mm 1 m/s 762 mmHg 89%
    02:00 +8°C° 0 mm 1 m/s 762 mmHg 88%
    03:00 +8°C° 0 mm 1 m/s 762 mmHg 88%
    04:00 +8°C° 0 mm 1 m/s 762 mmHg 88%
    05:00 +7°C° 0 mm 1 m/s 762 mmHg 87%
    06:00 +7°C° 0 mm 1 m/s 762 mmHg 87%
    07:00 +8°C° 0 mm 1 m/s 762 mmHg 86%
    08:00 +8°C° 0 mm 1 m/s 762 mmHg 85%
    09:00 +9°C° 0 mm 1 m/s 762 mmHg 84%
    10:00 +10°C° 0 mm 1 m/s 762 mmHg 79%
    11:00 +12°C° 0 mm 1 m/s 762 mmHg 74%
    12:00 +14°C° 0 mm 1 m/s 762 mmHg 69%
    13:00 +14°C° 0 mm 2 m/s 762 mmHg 70%
    14:00 +14°C° 0 mm 2 m/s 761 mmHg 71%
    15:00 +14°C° 0 mm 2 m/s 761 mmHg 71%
    16:00 +13°C° 0 mm 2 m/s 761 mmHg 78%
    17:00 +10°C° 0 mm 2 m/s 761 mmHg 84%
    18:00 +9°C° 0 mm 2 m/s 761 mmHg 90%
    19:00 +8°C° 0 mm 2 m/s 761 mmHg 91%
    20:00 +8°C° 0 mm 2 m/s 762 mmHg 91%
    21:00 +7°C° 0 mm 2 m/s 762 mmHg 92%
    22:00 +7°C° 0 mm 2 m/s 762 mmHg 91%
    23:00 +7°C° 0 mm 2 m/s 762 mmHg 91%

    25 Iulie, Joi

    Timp Temperatura Precipitaţii Vânt Presiune Umiditate
    00:00 +7°C° 0 mm 2 m/s 762 mmHg 91%
    01:00 +6°C° 0 mm 2 m/s 762 mmHg 91%
    02:00 +6°C° 0 mm 2 m/s 762 mmHg 90%
    03:00 +6°C° 0 mm 2 m/s 762 mmHg 90%
    04:00 +6°C° 0 mm 2 m/s 762 mmHg 90%
    05:00 +6°C° 0 mm 2 m/s 763 mmHg 90%
    06:00 +6°C° 0 mm 2 m/s 763 mmHg 89%
    07:00 +7°C° 0 mm 2 m/s 763 mmHg 88%
    08:00 +7°C° 0 mm 2 m/s 763 mmHg 86%
    09:00 +8°C° 0 mm 2 m/s 764 mmHg 85%
    10:00 +10°C° 0 mm 2 m/s 764 mmHg 79%
    11:00 +12°C° 0 mm 2 m/s 764 mmHg 73%
    12:00 +14°C° 0 mm 1 m/s 764 mmHg 67%
    13:00 +14°C° 0 mm 2 m/s 764 mmHg 67%
    14:00 +14°C° 0 mm 2 m/s 763 mmHg 67%
    15:00 +15°C° 0 mm 2 m/s 763 mmHg 67%
    16:00 +13°C° 0 mm 1 m/s 763 mmHg 75%
    17:00 +11°C° 0 mm 1 m/s 764 mmHg 82%
    18:00 +10°C° 0 mm 1 m/s 764 mmHg 90%
    19:00 +9°C° 0 mm 1 m/s 764 mmHg 90%
    20:00 +9°C° 0 mm 1 m/s 765 mmHg 90%
    21:00 +9°C° 0 mm 1 m/s 765 mmHg 91%
    22:00 +9°C° 0 mm 1 m/s 765 mmHg 90%
    23:00 +8°C° 0 mm 1 m/s 766 mmHg 90%

    26 Iulie, Vineri

    Timp Temperatura Precipitaţii Vânt Presiune Umiditate
    00:00 +8°C° 0 mm 1 m/s 766 mmHg 90%
    01:00 +8°C° 0 mm 1 m/s 766 mmHg 89%
    02:00 +8°C° 0 mm 1 m/s 766 mmHg 89%
    03:00 +8°C° 0 mm 1 m/s 766 mmHg 88%
    04:00 +8°C° 0 mm 1 m/s 766 mmHg 88%
    05:00 +8°C° 0 mm 1 m/s 766 mmHg 87%
    06:00 +7°C° 0 mm 1 m/s 766 mmHg 87%
    07:00 +8°C° 0 mm 1 m/s 766 mmHg 84%
    08:00 +9°C° 0 mm 1 m/s 766 mmHg 81%
    09:00 +9°C° 0 mm 1 m/s 766 mmHg 78%
    10:00 +11°C° 0 mm 1 m/s 766 mmHg 73%
    11:00 +13°C° 0 mm 1 m/s 766 mmHg 67%
    12:00 +15°C° 0 mm 1 m/s 766 mmHg 61%
    13:00 +15°C° 0 mm 1 m/s 765 mmHg 62%
    14:00 +15°C° 0 mm 1 m/s 765 mmHg 62%
    15:00 +15°C° 0 mm 1 m/s 764 mmHg 63%
    16:00 +14°C° 0 mm 1 m/s 764 mmHg 71%
    17:00 +11°C° 0 mm 0 m/s 765 mmHg 78%
    18:00 +9°C° 0 mm 0 m/s 765 mmHg 86%
    19:00 +10°C° 0 mm 1 m/s 765 mmHg 85%
    20:00 +10°C° 0 mm 1 m/s 765 mmHg 85%
    21:00 +8°C° 0 mm 2 m/s 765 mmHg 84%
    22:00 +8°C° 0 mm 2 m/s 765 mmHg 83%
    23:00 +8°C° 0 mm 2 m/s 765 mmHg 83%
    Arată mai mult